This is the latest recevied weather packets stored in our database for station/object KF0ZH. If no packets are shown the sender has not sent any weather packets the latest 10 day(s).
| Time | Temp. | Humidity | Pressure | Rain* | Wind** | Luminosity | Snow |
|---|---|---|---|---|---|---|---|
| 1777748470 | 17.22° C | 43% | 1013.9 hPa | 0 mm | 2.24 m/s, 136° | - | - |
| 1777748161 | 17.22° C | 41% | 1014.1 hPa | 0 mm | 2.68 m/s, 195° | - | - |
| 1777747863 | 16.67° C | 41% | 1014.2 hPa | 0 mm | 3.58 m/s, 164° | - | - |
| 1777747262 | 16.11° C | 44% | 1014.4 hPa | 0 mm | 6.26 m/s, 251° | - | - |
| 1777746962 | 16.11° C | 43% | 1014.5 hPa | 0 mm | 4.02 m/s, 198° | - | - |
| 1777746663 | 15.56° C | 45% | 1014.5 hPa | 0 mm | 0 m/s | - | - |
| 1777746362 | 15.56° C | 43% | 1014.8 hPa | 2.54 mm | 0 m/s | - | - |
| 1777746062 | 15.56° C | 45% | 1014.7 hPa | 2.54 mm | 1.79 m/s, 174° | - | - |
| 1777745590 | 15.56° C | 45% | 1015.1 hPa | 2.54 mm | 1.79 m/s, 210° | - | - |
| 1777745590 | 15° C | 44% | 1015.2 hPa | 2.54 mm | 2.68 m/s, 229° | - | - |
| 1777745590 | 15.56° C | 45% | 1015.3 hPa | 2.54 mm | 1.79 m/s, 296° | - | - |
| 1777745462 | 15.56° C | 45% | 1015 hPa | 2.54 mm | 2.68 m/s, 203° | - | - |
| 1777745166 | 15.56° C | 45% | 1015.1 hPa | 2.54 mm | 1.79 m/s, 210° | - | - |
| 1777744862 | 15° C | 44% | 1015.2 hPa | 2.54 mm | 2.68 m/s, 229° | - | - |
| 1777744562 | 15.56° C | 45% | 1015.3 hPa | 2.54 mm | 1.79 m/s, 296° | - | - |
| 1777743662 | 14.44° C | 45% | 1015.5 hPa | 2.54 mm | 3.58 m/s, 244° | - | - |
| 1777742822 | 14.44° C | 46% | 1015.8 hPa | 0 mm | 5.36 m/s, 202° | - | - |
| 1777742524 | 14.44° C | 47% | 1016 hPa | 0 mm | 2.68 m/s, 220° | - | - |
| 1777742222 | 14.44° C | 44% | 1016.1 hPa | 0 mm | 0.89 m/s, 220° | - | - |
| 1777741924 | 14.44° C | 47% | 1016.2 hPa | 0 mm | 1.79 m/s, 358° | - | - |
| 1777741622 | 14.44° C | 45% | 1016.2 hPa | 0 mm | 1.79 m/s, 293° | - | - |
| 1777741322 | 14.44° C | 44% | 1016.3 hPa | 0 mm | 4.92 m/s, 262° | - | - |
| 1777741022 | 14.44° C | 46% | 1016.3 hPa | 0 mm | 3.58 m/s, 248° | - | - |
| 1777740422 | 13.89° C | 46% | 1016.5 hPa | 0 mm | 0 m/s | - | - |
| 1777740122 | 13.89° C | 48% | 1016.5 hPa | 0 mm | 1.79 m/s, 272° | - | - |
* Rain latest hour (hover to see other rain measurements)
** Current wind speed in m/s (hover to see current wind gust speed)